Location: Cambiago
(45.5667°N, 9.4167°E)
Time: 12:52:02
(UTC+00:00)

Daily predictions for brighter satellites

Satellite Brightness Start Highest point End
(mag) Time Altitude Azimuth Time Altitude Azimuth Time Altitude Azimuth
BREEZE-M DEB (TANK) 4.2 15:58:14 10° W 16:02:03 69° N 16:15:06 10° ENE
Cosmos 44 3.5 16:02:33 10° NNW 16:07:52 76° NE 16:13:17 10° SE
CZ-4B R/B 3.5 16:04:14 10° SE 16:09:14 43° ENE 16:14:13 10° N
CZ-4B R/B 4.2 16:05:50 10° S 16:09:55 49° W 16:14:13 10° NNW
H-2A R/B 2.5 16:07:52 10° SSE 16:12:02 59° ENE 16:16:03 10° N
MOS 1-B 4.4 16:08:41 10° SSE 16:14:28 76° ENE 16:20:17 10° NNW
Cosmos 2369 Rocket 2.9 16:10:19 10° N 16:15:20 31° NE 16:20:18 10° ESE
Cosmos 1943 Rocket 2.4 16:11:45 10° NNW 16:17:07 46° ENE 16:22:28 10° SE
ADEOS Rocket 3.7 16:10:00 10° NNE 16:17:50 87° ESE 16:25:31 10° SSW
NOAA 12 4.3 16:13:44 10° SE 16:18:50 49° ENE 16:23:57 10° N
H-2A R/B 2.2 16:17:54 10° NNE 16:22:02 52° E 16:26:15 10° S
NOAA 6 4.1 16:20:23 10° SSE 16:25:32 90° WSW 16:30:43 10° NNW
Okean O Rocket 1.8 16:21:27 10° SE 16:25:38 47° ENE 16:29:51 10° N
Cosmos 1782 3.9 16:23:08 10° SE 16:26:26 25° E 16:29:44 10° NNE
Okean-O 4.4 16:25:42 10° E 16:27:38 13° ENE 16:29:34 10° NNE
CRYOSAT 2 4.3 16:24:37 10° N 16:29:32 74° E 16:34:26 10° S
H-2A R/B 3.7 16:26:22 10° S 16:30:08 53° W 16:33:59 10° NNW
ISS -2.4 16:27:27 10° WNW 16:30:25 28° N 16:32:58 12° NE
Cosmos 1633 Rocket 3.1 16:26:33 10° N 16:30:53 59° ENE 16:35:09 10° SSE
Cosmos 1933 3.3 16:27:59 10° S 16:31:59 63° E 16:36:02 10° NNE
Cosmos 2218 Rocket 4.0 16:31:17 10° N 16:37:21 59° ENE 16:43:25 10° SSE
Cosmos 2366 rocket 4.0 16:32:13 10° N 16:38:20 58° ENE 16:44:21 10° SSE
Cosmos 1867 4.3 16:33:30 10° SW 16:38:47 52° NW 16:44:08 10° NNE
ERS-2 3.3 16:36:10 11° NE 16:39:02 24° E 16:42:03 10° SSE
Meteor 1-25 Rocket 4.2 16:33:31 10° N 16:39:10 72° ENE 16:44:52 10° SSE
Envisat 3.5 16:36:48 10° S 16:41:50 64° WSW 16:46:54 10° NNW
Lacrosse 5 rocket 1.9 16:43:57 10° WSW 16:47:27 41° NNW 16:50:15 14° NE
Cosmos 773 Rocket 4.0 16:43:03 10° SSW 16:48:18 81° ESE 16:53:39 10° NNE
SL-23 DEB 4.2 16:45:20 10° SW 16:48:46 61° SE 16:52:39 17° ENE
NOSS 3-2 (A) 4.4 16:46:20 10° SSE 16:50:51 25° ESE 16:54:01 17° ENE
YAOGAN 6 3.6 16:47:25 10° S 16:50:58 51° W 16:54:29 10° NNW
Cosmos 1606 4.2 16:50:09 10° SW 16:53:47 38° WNW 16:57:26 10° N
Cosmos 2297 4.4 16:49:19 10° NNW 16:54:53 58° WSW 17:00:27 10° S
FengYun 1-2 T 4.1 16:50:31 10° SSE 16:56:01 73° ENE 17:01:31 10° N
AQUARIUS 4.2 16:51:33 10° SSE 16:56:03 86° WSW 17:00:34 10° NNW
Feng Yun 1-1 Rocket 4.4 16:50:40 10° SE 16:56:11 51° ENE 17:01:35 10° N
OE (NEXTSAT) 4.2 16:52:59 10° W 16:56:28 83° N 16:58:30 23° E
SL-16 R/B 2.7 16:52:52 10° SW 16:58:28 61° WNW 17:04:05 10° NNE
CZ-4B R/B 1.5 16:56:26 17° NNE 16:58:37 46° E 17:01:40 10° S
BREEZE-M DEB (TANK) 1.4 17:00:31 10° WSW 17:02:56 74° NNW 17:03:26 43° NE
USA 215 4.0 16:59:20 18° ENE 17:03:31 34° SE 17:09:22 10° SSW
SMAP 3.6 17:00:29 10° S 17:05:05 62° WSW 17:09:43 10° NNW
Cosmos 1500 3.8 17:02:54 10° N 17:06:25 34° ENE 17:09:56 10° SE
YAOGAN 1 3.6 17:09:19 24° NE 17:09:19 24° NE 17:12:24 10° NNE
USA 238 DEB 4.3 17:04:06 10° S 17:09:52 34° ESE 17:13:06 22° ENE
USA 238 4.3 17:04:12 10° S 17:09:59 34° ESE 17:13:10 22° ENE
Cosmos 1656 Rocket 4.0 17:05:38 10° NNW 17:11:02 44° ENE 17:16:20 10° SE
Cosmos 1151 Rocket 3.5 17:07:56 10° SSW 17:12:09 59° W 17:16:23 10° N
SL-24 DEB 4.4 17:07:46 10° NNE 17:12:22 48° E 17:16:54 10° SSE
Cosmos 1470 Rocket 3.5 17:09:03 10° N 17:13:24 87° W 17:17:43 10° S
MOS 1 Rocket 4.4 17:13:25 22° NE 17:15:38 30° E 17:20:17 10° SSE
Cosmos 158 Rocket 4.4 17:14:57 10° S 17:19:29 37° ESE 17:20:55 30° ENE
Cosmos 2263 4.1 17:14:21 10° NNW 17:19:57 64° ENE 17:25:30 10° SE
Cosmos 1515 Rocket 3.4 17:15:44 10° S 17:20:07 84° E 17:24:33 10° N
CZ-2C R/B 3.2 17:16:13 10° SE 17:20:51 40° ENE 17:25:20 10° N
SWAS 4.4 17:18:04 10° SSW 17:22:17 65° ESE 17:24:10 31° NE
Cosmos 923 Rocket 4.3 17:17:58 10° S 17:22:49 42° ESE 17:24:50 29° NE
Cosmos 1238 Rocket 3.4 17:21:42 10° N 17:25:32 41° E 17:30:08 10° SSE
COSMO-SKYMED 1 2.5 17:23:07 18° NNE 17:26:17 64° E 17:30:35 10° S
Cosmos 1689 Rocket 4.0 17:29:01 18° SSE 17:29:01 18° SSE 17:30:01 10° S
USA 281 3.4 17:21:31 10° SE 17:27:45 49° NE 17:34:01 10° NNW
YAOGAN 3 4.5 17:24:39 10° SSE 17:29:01 89° NE 17:33:24 10° NNW
X-37B 0.5 17:26:03 10° WSW 17:29:13 70° S 17:29:28 65° SE
Nadezhda 3 Rocket 4.0 17:23:15 10° S 17:29:27 57° E 17:35:41 10° NNE
SAR-Lupe-4 3.5 17:29:14 50° NE 17:29:51 60° ESE 17:33:24 10° S
Helios 1A Rocket 3.6 17:33:25 35° NNE 17:33:25 35° NNE 17:36:10 10° N
Meteor 2-6 Rocket 4.1 17:27:02 10° S 17:32:31 62° E 17:37:14 14° NNE
Cosmos 2228 Rocket 3.1 17:28:17 10° S 17:32:42 55° E 17:34:29 33° NNE
Meteor 1-4 Rocket 3.7 17:30:45 10° SSW 17:34:10 41° WNW 17:37:26 11° N
H-2A R/B 2.4 17:35:17 38° E 17:35:42 38° ENE 17:40:26 10° N
Cosmos 1812 2.6 17:32:46 10° S 17:36:32 59° E 17:36:35 59° E
USA 267 3.6 17:34:11 31° ENE 17:36:54 47° NNE 17:43:06 10° NW
Cosmos 1821 Rocket 3.9 17:31:59 10° N 17:38:16 72° E 17:44:35 10° SSE
Cosmos 1939 Rocket 3.0 17:34:27 10° S 17:38:18 71° W 17:42:15 10° NNW
CZ-4 R/B 4.3 17:35:57 10° SSE 17:40:04 82° ENE 17:44:14 10° N
CZ-4 R/B 1.8 17:41:27 44° NNE 17:41:27 44° NNE 17:44:31 10° N
Meteor 1-11 Rocket 3.9 17:35:43 10° N 17:41:20 49° ENE 17:47:00 10° SSE
NOSS 3-3 (A) 4.5 17:34:43 10° NW 17:42:07 65° NE 17:47:58 21° SE
NOSS 3-3 (C) 4.5 17:34:47 10° NW 17:42:13 65° NE 17:47:58 21° SE
PSLV R/B 3.8 17:42:20 61° ENE 17:42:39 64° ESE 17:46:40 10° S
CSL-04 Rocket 4.2 17:44:05 37° NE 17:44:05 37° NE 17:48:06 10° N
BREEZE-M DEB (TANK) 3.4 17:40:08 10° SW 17:42:53 26° SSE 17:42:53 26° SSE
Cosmos 1933 Rocket 4.0 17:39:01 10° NNW 17:43:27 62° W 17:47:50 10° S
Cosmos 44 Rocket 3.4 17:38:26 10° NNW 17:43:35 63° NE 17:45:09 42° ESE
IRS-1C Rocket 4.1 17:39:19 10° SSE 17:44:35 84° WSW 17:49:54 10° NNW
Cosmos 546 4.4 17:42:17 10° WSW 17:46:07 90° NNW 17:46:15 84° ENE
SAR-Lupe-1 4.0 17:46:35 77° N 17:46:49 87° WNW 17:50:24 10° SSW
Lacrosse 4 Rocket 3.2 17:45:41 10° S 17:46:59 18° SSE 17:46:59 18° SSE
Cosmos 1680 Rocket 3.5 17:44:31 10° S 17:49:39 55° ESE 17:50:18 52° ENE
SL-24 R/B 3.7 17:49:33 51° N 17:50:24 77° WNW 17:54:02 10° SSW
Cosmos 1603 3.7 17:48:21 10° SSW 17:53:58 79° WNW 17:56:56 29° NNE
CZ-2D R/B 3.6 17:51:23 10° S 17:55:10 64° W 17:59:00 10° NNW
Cosmos 1943 3.2 17:51:40 10° SSW 17:57:20 83° WNW 17:59:58 34° NNE
Cosmos 2369 Rocket 3.1 17:54:08 10° NW 17:59:35 48° WSW 18:04:57 10° S
Cosmos 1943 Rocket 4.1 17:55:55 10° NW 18:00:37 29° WSW 18:05:20 10° SSW
Meteor 1-5 Rocket 4.4 17:55:50 10° NNW 18:01:45 75° W 18:07:27 10° S
Okean O Rocket 4.4 17:59:12 10° SW 18:02:14 18° W 18:05:18 10° NW
Okean-O 2.6 17:59:03 10° SSE 18:03:28 81° WSW 18:07:56 10° NNW
Cosmos 1461 4.1 17:59:44 10° SSW 18:02:44 36° SSE 18:02:44 36° SSE
Cosmos 1371 Rocket 4.4 17:59:44 10° NNW 18:03:40 46° NNE 18:03:40 46° NNE
ARGOS 4.2 18:08:32 31° N 18:08:32 31° N 18:11:24 10° N
CENTAUR R/B 2.5 18:01:50 10° SSW 18:07:29 55° ESE 18:07:44 55° ESE
ISS -1.6 18:04:31 10° NW 18:05:55 22° NW 18:05:55 22° NW
Cosmos 2112 Rocket 3.9 18:04:58 10° S 18:09:53 69° SE 18:09:53 69° SE
Cosmos 2056 Rocket 4.2 18:05:56 10° NNW 18:09:29 40° N 18:09:29 40° N
ERS-2 4.2 18:10:45 18° NNW 18:12:32 26° WNW 18:15:36 10° WSW
NOSS 3-2 (C) 3.4 18:10:07 10° SSW 18:15:10 59° SE 18:15:10 59° SE
Cosmos 1869 Rocket 4.0 18:13:45 10° NNW 18:22:43 - S 18:17:49 61° WNW
BREEZE-M DEB (TANK) 3.5 18:13:32 10° WSW 18:19:59 62° SW 18:19:59 62° SW
Meteor 1-27 Rocket 3.8 18:15:42 10° S 18:20:12 60° SSE 18:20:12 60° SSE
Lacrosse 5 rocket 3.8 18:25:08 10° NW 18:25:53 13° NW 18:25:53 13° NW
NOSS 3-2 (A) 3.6 18:35:24 10° SW 18:41:02 62° NW 18:41:27 61° NNW
USA 215 3.2 18:46:42 77° NNW 18:46:54 78° NW 18:53:26 10° WSW
USA 238 DEB 4.0 18:53:59 10° WSW 19:00:28 57° NW 19:00:35 57° NW
USA 238 4.0 18:54:04 10° SW 19:00:34 58° NW 19:00:39 58° NW
USA 281 4.4 19:06:22 10° S 19:12:21 37° WSW 19:18:23 10° NW
H-2A R/B 3.8 19:15:55 29° W 19:15:55 29° W 19:19:41 10° NW
USA 267 3.9 19:21:32 50° WNW 19:21:32 50° WNW 19:26:16 10° NW
CENTAUR R/B 4.5 19:52:42 10° WSW 19:54:58 22° W 19:54:58 22° W
